CHINASAT 2A (ZX 2A) 1 38352U 12028A 21054.81044892 -.00000293 00000-0 00000+0 0 9996 2 38352 0.0140 191.3382 0001896 170.6583 181.9011 1.00274007 32196 CZ-3B R/B 1 38353U 12028B 21055.42377217 .00114447 -51347-6 95592-3 0 9992 2 38353 26.8250 191.7541 3849532 189.1468 161.1659 7.86444545174981